FW9881 Weather Reports


time (UTC)temp
C
wind
direction
speed
KPH
gust
KPH
rain 1hr
cm
rain 24hr
cm
rain mn
cm
humidity
%
barometer
mb
20260510204615 20 229 4.8 9.7 0.00 0.23 0.00 50 1013.7
20260510204513 20 239 3.2 9.7 0.00 0.23 0.00 51 1013.7
20260510203516 19 239 11.3 17.7 0.00 0.28 0.00 53 1013.9
20260510202613 19 358 1.6 6.4 0.00 0.33 0.00 53 1013.9
20260510201712 19 293 4.8 8.0 0.00 0.36 0.00 52 1013.7
20260510200714 20 282 8.0 11.3 0.00 0.41 0.00 54 1014.1
20260510200615 19 272 3.2 6.4 0.00 0.41 0.00 55 1014.1
20260510194714 18 317 6.4 11.3 0.00 0.48 0.00 57 1014.1
20260510193713 18 243 11.3 19.3 0.00 0.51 0.00 54 1014.1
20260510192812 20 263 11.3 17.7 0.00 0.56 0.00 54 1014.1
20260510192716 20 243 12.9 19.3 0.00 0.56 0.00 55 1014.1
20260510191628 20 219 3.2 8.0 0.00 0.58 0.00 55 1014.1
20260510190615 19 222 6.4 11.3 0.00 0.61 0.00 56 1014.1
20260510190513 19 248 8.0 11.3 0.00 0.61 0.00 56 1014.1
20260510185514 19 242 6.4 17.7 0.00 0.64 0.00 57 1014.1
20260510184514 19 268 6.4 22.5 0.00 0.69 0.00 57 1014.1
20260510181514 18 231 3.2 6.4 0.00 0.79 0.00 65 1014.4
20260510174614 17 247 8.0 16.1 0.00 0.89 0.00 64 1014.6
20260510173628 18 214 1.6 4.8 0.00 0.94 0.00 62 1014.5
20260510171728 17 215 0.0 3.2 0.00 0.99 0.00 64 1014.4
20260510170714 18 208 3.2 8.0 0.00 1.04 0.00 61 1014.4
20260510164714 18 191 3.2 11.3 0.00 1.14 0.00 61 1014.5
20260510163715 18 269 4.8 11.3 0.00 1.19 0.00 65 1014.7
20260510162813 17 292 4.8 9.7 0.00 1.22 0.00 66 1014.7
20260510161912 17 233 6.4 14.5 0.00 1.24 0.00 67 1014.7
20260510161011 17 245 4.8 11.3 0.00 1.30 0.00 68 1014.7
20260510160915 17 245 8.0 12.9 0.00 1.30 0.00 68 1014.7
20260510153914 16 208 4.8 8.0 0.00 1.40 0.00 74 1014.8
20260510152913 16 140 8.0 12.9 0.00 1.42 0.00 76 1014.8
20260510152830 16 183 6.4 11.3 0.00 1.42 0.00 76 1014.9
20260510151728 16 160 3.2 6.4 0.00 1.45 0.00 79 1014.8
20260510150715 15 217 0.0 6.4 0.00 1.45 0.00 81 1014.9
20260510145811 15 126 3.2 9.7 0.00 1.45 0.00 84 1015.0
20260510144813 15 182 6.4 9.7 0.00 1.50 0.00 87 1015.1
20260510143815 14 202 0.0 0.0 0.00 1.52 0.00 90 1015.1
20260510141712 13 154 3.2 6.4 0.00 1.57 0.00 90 1015.4
20260510140714 12 288 3.2 6.4 0.00 1.60 0.00 90 1015.5
20260510140613 12 245 3.2 6.4 0.00 1.60 0.00 89 1015.5
20260510135629 12 250 1.6 3.2 0.00 1.60 0.00 89 1015.5
20260510134713 11 275 3.2 4.8 0.00 1.63 0.00 89 1015.6
20260510133714 11 157 0.0 1.6 0.00 1.65 0.00 89 1015.5
20260510132728 11 291 0.0 1.6 0.00 1.65 0.00 87 1015.5
20260510125713 10 225 0.0 0.0 0.00 1.68 0.00 88 1015.4
20260510125612 10 225 0.0 0.0 0.00 1.68 0.00 89 1015.5
20260510123612 10 247 0.0 0.0 0.00 1.70 0.00 89 1015.4
20260510122711 10 149 0.0 4.8 0.00 1.73 0.00 89 1015.5
20260510121714 10 176 3.2 6.4 0.00 1.73 0.00 89 1015.5
20260510115812 10 247 0.0 0.0 0.00 1.73 0.00 88 1015.7
20260510113914 9 202 1.6 3.2 0.00 1.73 0.00 88 1015.6
20260510112013 9 247 1.6 3.2 0.00 1.73 0.00 89 1015.5
20260510111914 9 256 1.6 3.2 0.00 1.73 0.00 88 1015.5
20260510110915 8 202 1.6 3.2 0.00 1.73 0.00 89 1015.1
20260510110829 8 243 0.0 0.0 0.00 1.73 0.00 89 1015.1
20260510110711 8 247 0.0 1.6 0.00 1.73 0.00 89 1015.1
20260510105712 8 157 0.0 0.0 0.00 1.73 0.00 89 1014.8
20260510103714 7 22 0.0 0.0 0.00 1.73 0.00 89 1014.7
20260510100827 7 270 0.0 0.0 0.00 1.73 0.00 88 1014.4
20260510095815 7 180 0.0 0.0 0.00 1.73 0.00 89 1013.9
20260510095714 7 180 0.0 0.0 0.00 1.73 0.00 89 1013.9
20260510094812 7 270 0.0 0.0 0.00 1.73 0.00 88 1013.9
20260510094729 7 270 0.0 0.0 0.00 1.73 0.00 88 1013.9
20260510093715 7 157 0.0 0.0 0.00 1.73 0.00 89 1013.9
20260510092715 7 247 1.6 1.6 0.00 1.73 0.00 89 1014.2
20260510085714 7 337 0.0 0.0 0.00 1.73 0.00 88 1014.2
20260510083714 7 337 0.0 0.0 0.00 1.73 0.00 89 1014.4
20260510082713 7 337 0.0 0.0 0.00 1.73 0.00 88 1014.3
20260510081614 7 337 0.0 0.0 0.00 1.73 0.00 88 1014.1
20260510075716 7 337 0.0 0.0 0.00 1.73 0.00 89 1014.4
20260510074712 7 337 0.0 0.0 0.00 1.73 0.00 89 1014.2
20260510073713 7 337 0.0 0.0 0.00 1.73 0.00 89 1014.1
20260510072713 7 337 0.0 0.0 0.00 1.73 0.00 89 1014.2
20260510071812 7 337 0.0 0.0 0.00 1.73 0.00 89 1014.1
20260510070814 7 337 0.0 0.0 0.00 1.73 0.00 89 1014.0
20260510070715 7 337 0.0 0.0 0.00 1.73 0.00 88 1014.1
20260510065714 7 337 0.0 0.0 0.00 1.73 0.00 88 1014.1
20260510064731 7 337 0.0 0.0 0.00 1.73 0.00 89 1014.1
20260510063714 7 337 0.0 0.0 0.00 1.73 0.00 88 1014.4
20260510062713 7 337 0.0 0.0 0.00 1.73 0.00 88 1014.3
20260510061713 7 337 0.0 0.0 0.00 1.73 0.00 88 1014.3
20260510060713 7 337 0.0 0.0 0.00 1.73 0.00 88 1014.2
20260510055712 7 337 0.0 0.0 0.00 1.73 0.00 89 1014.4
20260510054712 7 337 0.0 0.0 0.00 1.73 0.00 88 1014.3
20260510051713 7 311 0.0 4.8 0.00 1.73 0.00 89 1014.4
20260510051612 7 337 0.0 0.0 0.00 1.73 0.00 89 1014.4
20260510050613 7 337 0.0 1.6 0.00 1.73 0.00 89 1014.4
20260510045611 7 180 1.6 1.6 0.00 1.73 0.00 89 1014.5
20260510044613 7 315 1.6 3.2 0.00 1.73 0.00 89 1014.6
20260510042711 7 254 0.0 1.6 0.00 1.73 0.00 90 1014.9
20260510042612 7 282 0.0 1.6 0.00 1.73 0.00 90 1014.8
20260510041613 7 337 0.0 0.0 0.00 1.73 0.00 90 1014.7
20260510040712 7 337 0.0 0.0 0.00 1.73 0.00 90 1014.7
20260510040614 7 337 0.0 0.0 0.00 1.73 0.00 89 1014.7
20260510035616 7 337 0.0 0.0 0.00 1.73 1.73 90 1014.8
20260510033620 7 337 0.0 0.0 0.00 1.73 1.73 89 1014.6
20260510032716 7 337 0.0 0.0 0.00 1.73 1.73 90 1014.8
20260510031718 7 337 0.0 0.0 0.00 1.73 1.73 90 1015.0
20260510030816 7 337 0.0 0.0 0.00 1.73 1.73 90 1015.0
20260510025817 7 337 0.0 0.0 0.00 1.73 1.73 90 1015.2
20260510024818 7 337 3.2 4.8 0.00 1.73 1.73 90 1015.3
20260510023833 7 337 0.0 0.0 0.00 1.73 1.73 90 1015.3
20260510022819 7 337 0.0 0.0 0.00 1.73 1.73 89 1015.3
20260510022734 7 337 0.0 0.0 0.00 1.73 1.73 90 1015.3
20260510021717 7 337 0.0 0.0 0.00 1.73 1.73 89 1015.4
20260510021618 7 337 0.0 0.0 0.00 1.73 1.73 90 1015.5
20260510015617 7 180 0.0 0.0 0.00 1.73 1.73 90 1015.4
20260510014619 7 180 0.0 0.0 0.00 1.73 1.73 90 1015.5
20260510013632 7 180 1.6 1.6 0.00 1.73 1.73 90 1015.5
20260510012619 7 315 0.0 0.0 0.00 1.73 1.73 90 1015.7
20260510010720 7 315 0.0 0.0 0.00 1.73 1.73 90 1015.4
20260510005717 7 157 0.0 0.0 0.00 1.73 1.73 89 1015.1
20260510004718 7 157 0.0 0.0 0.00 1.73 1.73 90 1015.0
20260510004618 7 157 0.0 0.0 0.00 1.73 1.73 89 1015.1
20260510003619 7 157 0.0 0.0 0.00 1.73 1.73 90 1015.1
20260510002619 7 157 0.0 0.0 0.00 1.73 1.73 90 1015.0
20260510000536 7 157 0.0 1.6 0.00 1.73 1.73 90 1015.0
20260509235416 7 180 0.0 0.0 0.00 1.73 1.73 90 1014.9
20260509234516 7 180 0.0 0.0 0.03 1.73 1.73 89 1014.9
20260509233518 7 225 0.0 0.0 0.03 1.73 1.73 90 1014.8
20260509232617 7 225 0.0 0.0 0.03 1.73 1.73 89 1014.8
20260509232518 7 225 0.0 0.0 0.03 1.73 1.73 90 1014.8
20260509231518 7 286 0.0 1.6 0.03 1.73 1.73 89 1014.8
20260509230616 7 292 0.0 0.0 0.03 1.73 1.73 89 1014.6
20260509225633 7 292 0.0 0.0 0.03 1.73 1.73 89 1014.7
20260509223817 6 180 0.0 0.0 0.00 1.70 1.70 89 1014.8
20260509223719 6 180 0.0 0.0 0.00 1.70 1.70 90 1014.8
20260509222718 6 180 0.0 1.6 0.03 1.70 1.70 90 1014.7
20260509220716 6 315 0.0 1.6 0.10 1.70 1.70 90 1014.8
20260509215718 6 315 0.0 0.0 0.15 1.70 1.70 89 1015.0
20260509215619 6 315 0.0 0.0 0.15 1.70 1.70 90 1015.0
20260509214519 6 315 0.0 0.0 0.20 1.70 1.70 89 1015.0
20260509213518 6 270 0.0 0.0 0.25 1.70 1.70 90 1015.4
20260509212518 6 270 1.6 3.2 0.28 1.68 1.65 90 1015.5
20260509211517 6 270 1.6 1.6 0.30 1.65 1.63 89 1015.5
20260509211418 6 270 3.2 3.2 0.28 1.63 1.63 89 1015.5